Weather in Pomichna

Ukraine / Kirovohrad Region     48°14′35″N   31°24′21″E
temp.,
°C
wind,
m/s
gust,
m/s
humid.,
%
clouds,
%
prec.,
mm/h
press.,
hPa
HPBL,
m
8 march, mon
mon823:00−3wsw5107594 0.0 1017186
02:00−3sw487476 0.0 1015142
05:00−3wsw457791 0.0 101484
08:00−2w5117958 0.0 1013398
11:00+1wnw698538 0.0 1013742
14:00+1wnw578153 0.1 1013906
17:000w368497 0.0 1013192
20:00−1wnw359698 0.4 1015126
9 march, tue
tue923:00−3wnw368548 0.0 1016163
02:00−4nw4108525 0.0 1017395
05:00−5nw49800 0.0 1018344
08:00−4nw58760 0.0 1020621
11:00−2nnw57699 0.0 10211081
14:00−1nw466552 0.1 10211181
17:00−2nnw356894 0.1 1021815
20:00−3n227867 0.1 102469
10 march, wed
wed1023:00−4e358445 0.0 1025238
02:00−5e237537 0.0 1025160
05:00−5e237088 0.0 1025163
08:00−5e356295 0.0 1025310
11:00−2ese3451100 0.0 1025637
14:00−1ese3344100 0.0 1024940
17:00−2e2350100 0.0 1023596
20:00−3e245899 0.0 1024137
11 march, thu
thu1123:00−3e255897 0.0 1025229
02:00−4e236068 0.0 102585
05:00−5e23600 0.0 102554
08:00−3ese23550 0.0 1026206
11:00−1sse23400 0.0 1026904
14:00+1s23372 0.0 10261224
17:000sse235156 0.0 1025119
20:00−1sse495571 0.0 1025234
12 march, fri
fri1223:00−1s5115597 0.0 1024539
02:00−1s9145798 0.0 1022755
05:00−2s101690100 0.2 1020765
08:00−1s111793100 0.9 1018913
11:00+2ssw111796100 1.6 10161032
14:00+2ssw91597100 4.3 1014770
17:00+2sw61198100 3.8 1013313
20:00+2wsw41099100 5.5 1013293